Regional Weather Roundup
Issued by NWS Newport/Morehead, NC

Current Version | Previous Version | Graphics & Text | Print | Product List | Glossary Off
Versions: 1 2 3 4 5 6 7 8 9 10 11 12 13 14 15 16 17 18 19 20 21 22 23 24 25 26 27 28 29 30 31 32 33 34 35 36 37 38 39 40 41 42 43 44 45 46 47 48 49 50

000
ASUS42 KMHX 252014
RWRMHX
WEATHER ROUNDUP FOR EASTERN NORTH CAROLINA
NATIONAL WEATHER SERVICE NEWPORT/MOREHEAD CITY NC
400 PM EDT SUN JUN 25 2017

NOTE: "FAIR" INDICATES FEW OR NO CLOUDS BELOW 12,000 FEET
WITH NO SIGNIFICANT WEATHER AND/OR OBSTRUCTIONS TO VISIBILITY

NCZ015>017-031-032-045>047-102-103-252100-
NORTH COAST

CITY           SKY/WX    TMP DP  RH WIND       PRES   REMARKS
EDENTON        PTSUNNY   88  71  56 CALM      30.01S
ELIZABETH CITY PTSUNNY   87  73  62 NW9       29.99S
KITTY HAWK     PTCLDY    85  68  56 SW6       29.99S
MANTEO         PTSUNNY   84  68  58 CALM      30.00S

$$

NCZ045>047-081-094-103-104-252100-
CENTRAL COAST

CITY           SKY/WX    TMP DP  RH WIND       PRES   REMARKS
FRISCO         CLOUDY    83  74  74 W6        30.01F

$$

NCZ095-097-098-100-101-252100-
SOUTHERN COAST

CITY           SKY/WX    TMP DP  RH WIND       PRES   REMARKS
BEAUFORT       CLOUDY    83  77  82 SW10      30.01S
CEDAR ISLAND   NOT AVBL
JACKSONVILLE   CLOUDY    86  76  71 NW6       30.00S
PINEY ISLAND   CLOUDY   N/A N/A N/A NW9       30.01S
WILMINGTON     MOSUNNY   89  73  59 NW5       30.01F


$$

NCZ011>013-027>030-043-044-078>080-089-090>093-098-252100-
COASTAL PLAIN

CITY           SKY/WX    TMP DP  RH WIND       PRES   REMARKS
AHOSKIE          N/A     83  66  56 NW5       30.01F
CLINTON        MOSUNNY   87  72  62 NW6       30.03F
ELIZABETHTOWN  NOT AVBL
GOLDSBORO      NOT AVBL
GREENVILLE     MOSUNNY   86  66  51 NW9       30.03F
HAVELOCK       CLOUDY    87  74  64 W6        30.01F
KENANSVILLE    MOSUNNY   86  72  62 N8        30.03F
KINSTON        CLOUDY    84  68  58 NW7       30.03S
NEW BERN       MOSUNNY   86  74  67 W6        30.02S
RICHLANDS      PTSUNNY   86  77  74 VRB5      30.01F
ROCKY MOUNT    SUNNY     85  64  49 N10       30.03S
WASHINGTON     SUNNY    N/A N/A N/A N5        30.02S
WHITEVILLE     MOSUNNY   86  72  61 SW3       30.01F

$$

AMZ130-135-150-152-154-156-158-170-250-252-270-ANZ085-086-088-633-658-670-252100-
MARINE OBSERVATIONS

STATION/POSITION TIME  TEMP    WIND        PRES    WAVE   SWELL
                       AIR SEA DIR/SP/G            HT/PER HT/PER
                 (UTC) (F)     (DEG/KT/KT) (MB)    (FT/S) (FT/S)
CHESAPEAKE LIGHT NOT AVBL
64 E VA BEACH    1950   75 75  230/  2/  4 1016.4    4/ 7   3/ 7
DUCK             1942   77 62  160/  9/ 12 1015.0
2 E DUCK         NOT AVBL
OREGON INLET     1942   80 80   80/  5/  7 1015.8
13E OREGON INLT  1948      78                N/A     3/ 6   2/ 6
HATTERAS CG      1942   82 78  260/  5/  8 1016.1
DIAMOND BUOY     1950   79 80  250/  6/  8 1016.5    4/ 6   3/ 6
CAPE LOOKOUT     2000   80     220/  8/ 11 1016.0
BEAUFORT LAB     1942   82 79  220/  6/ 12 1015.6
30 SE NEW RVR IN 1908   80 81  260/  8/ 12 1016.9
30 SE NEW RVR IN 1943      81                N/A     5/ 6
27 SE WRIGHTSVLE 1908   79 81  240/ 12/ 16 1017.0
5 SE WRIGHTSVLE  1908   81 80  220/  6/  8 1016.6
225 S CAPE HAT   1950   81 81  220/ 14/ 16 1019.5    4/ 6   2/ 8
41 SE CHARLESTON 1950   80 81  220/ 10/ 14 1017.3    3/ 6   3/ 6

$$




USA.gov is the U.S. government's official web portal to all federal, state and local government web resources and services.